Location: Habighorst
(52.7089°N, 10.2278°E)
Time: 00:24:43
(UTC+00:00)

SeaSat 1 - Pass Details

Date: 13 January 2026
Orbit: 737 x 739 km, 108.0° (Epoch: 9 February)

Event Time Altitude Azimuth Distance (km) Brightness Sun altitude
Rises 05:53:20 0° 31° (NNE) 3,186 5.9 -13.2°
Reaches altitude 10° 05:55:36 10° 33° (NNE) 2,260 5.1 -12.9°
Maximum altitude 06:00:32 84° 121° (ESE) 751 2.5 -12.2°
Drops below altitude 10° 06:05:26 10° 211° (SSW) 2,246 4.8 -11.5°
Sets 06:07:41 0° 212° (SSW) 3,165 5.6 -11.1°
